Location: Bacharowice
(49.9333°N, 19.5833°E)
Time: 23:24:51
(UTC+00:00)

COSMOS 2406 - Pass Details

Date: 11 May 2021
Orbit: 844 x 862 km, 71.0° (Epoch: 21 June)

Event Time Altitude Azimuth Distance (km) Brightness Sun altitude
Rises 19:58:32 0° 329° (NNW) 3,415 8.3 -13.4°
Reaches altitude 10° 20:01:00 10° 327° (NNW) 2,476 7.1 -13.6°
Maximum altitude 20:06:37 66° 246° (WSW) 926 3.4 -14.2°
Enters shadow 20:10:46 19° 169° (SSE) 1,934 4.5 -14.6°
